Location: Lichtensteig
(47.3376°N, 9.0841°E)
Time: 03:35:32
(UTC+00:00)

SeaSat 1 - Pass Details

Date: 03 March 2021
Orbit: 744 x 747 km, 108.0° (Epoch: 16 April)

Event Time Altitude Azimuth Distance (km) Brightness Sun altitude
Rises 17:55:36 0° 35° (NE) 3,201 5.4 -8.2°
Reaches altitude 10° 17:58:02 10° 43° (NE) 2,273 4.5 -8.6°
Maximum altitude 18:02:36 37° 111° (ESE) 1,157 3.0 -9.4°
Drops below altitude 10° 18:07:09 10° 178° (S) 2,259 4.9 -10.2°
Sets 18:09:33 0° 187° (S) 3,178 5.8 -10.6°
